Stations météo

Publicité
Bourges, France (7255): Température de l'air & dewpoint: 18.10.2018 00:00:00 - 24.10.2018 00:00:00 (CEST)Bourges, France (7255): Température de l'air 5cm: 18.10.2018 00:00:00 - 24.10.2018 00:00:00 (CEST)Bourges, France (7255): Température de l'air -20cm & Température de l'air -100cm: 18.10.2018 00:00:00 - 24.10.2018 00:00:00 (CEST)Bourges, France (7255): Vitesse du vent & gusts: 18.10.2018 00:00:00 - 24.10.2018 00:00:00 (CEST)Bourges, France (7255): Direction du vent: 18.10.2018 00:00:00 - 24.10.2018 00:00:00 (CEST)Bourges, France (7255): reduced air pressure: 18.10.2018 00:00:00 - 24.10.2018 00:00:00 (CEST)Bourges, France (7255): visibility: 18.10.2018 00:00:00 - 24.10.2018 00:00:00 (CEST)Bourges, France (7255): Ensoleillement: 18.10.2018 00:00:00 - 24.10.2018 00:00:00 (CEST)Bourges, France (7255): Quantités de précipitations: 18.10.2018 00:00:00 - 24.10.2018 00:00:00 (CEST)
Date & Time tt [°C] td [°C] tt 5cm [°C] tt -20cm [°C] tt -100cm [°C] ff [km/h] ff [knt] fx [km/h] fx [knt] dd ppp [hPa] vv [km] sd [min] rr [mm]
24.10.2018 00:00:00 8,2 3,6 6,0 15,4 17,5 5 3 11 6 W 1031,6 20 0 0,0
23.10.2018 23:00:00 9,2 3,8 5,5 15,6 17,5 6 3 9 5 W 1031,6 20 0 0,0
23.10.2018 22:00:00 9,2 3,6 6,0 15,9 17,5 5 3 9 5 WSW 1031,5 20 0 0,0
23.10.2018 21:00:00 11,0 4,2 9,0 16,1 17,5 5 3 12 6 W 1031,5 20 0 0,0
23.10.2018 20:00:00 12,3 4,5 10,7 16,3 17,6 6 3 11 6 WNW 1031,4 20 0 0,0
23.10.2018 19:00:00 13,4 4,5 11,3 16,3 17,6 6 3 12 6 W 1030,6 20 25 0,0
23.10.2018 18:00:00 15,7 5,0 16,8 16,1 17,6 7 4 15 8 W 1030,6 20 60 0,0
23.10.2018 17:00:00 15,9 5,5 18,8 15,8 17,6 10 6 18 10 NW 1031,6 20 48 0,0
23.10.2018 16:00:00 15,6 4,9 18,9 15,3 17,6 6 4 13 7 NNW 1031,4 20 38 0,0
23.10.2018 15:00:00 15,7 5,0 19,6 14,8 17,6 8 4 19 10 N 1031,9 20 56 0,0
23.10.2018 14:00:00 15,5 4,8 19,6 14,4 17,6 9 5 21 11 NNW 1032,5 20 60 0,0
23.10.2018 13:00:00 14,6 5,7 18,8 14,0 17,6 7 4 15 8 NE 1033,4 20 60 0,0
23.10.2018 12:00:00 13,0 6,8 16,9 13,8 17,6 6 4 13 7 NE 1033,8 18 60 0,0
23.10.2018 11:00:00 9,6 6,7 11,1 13,9 17,6 7 4 14 8 N 1034,7 15 60 0,0
23.10.2018 10:00:00 6,3 5,1 6,1 14,1 17,6 6 3 12 7 NW 1034,1 8 60 0,0
23.10.2018 09:00:00 4,7 4,0 3,7 14,3 17,7 5 3 10 5 WNW 1033,7 3,8 17 0,0
23.10.2018 08:00:00 5,3 4,3 4,0 14,6 17,7 4 2 15 8 W 1033,3 7 0 0,0
23.10.2018 07:00:00 6,7 5,3 5,7 14,8 17,7 6 4 16 9 N 1033,3 13 0 0,0
23.10.2018 06:00:00 7,0 5,6 6,0 15,1 17,7 8 5 16 9 N 1033,3 19 0 0,0
23.10.2018 05:00:00 7,8 6,1 4,6 15,3 17,7 8 4 11 6 N 1032,7 20 0 0,0
23.10.2018 04:00:00 8,9 6,5 7,6 15,5 17,7 6 3 14 8 N 1032,7 20 0 0,0
23.10.2018 03:00:00 9,3 6,6 8,3 15,7 17,7 9 5 15 8 N 1033,0 20 0 0,0
23.10.2018 02:00:00 10,3 7,0 9,4 15,9 17,7 8 4 18 10 NNE 1033,0 20 0 0,0
23.10.2018 01:00:00 11,6 7,5 10,6 16,0 17,7 9 5 28 15 NNE 1033,0 20 0 0,0
23.10.2018 00:00:00 13,1 8,4 13,0 16,1 17,7 16 8 32 17 NE 1033,0 20 0 0,0
22.10.2018 23:00:00 13,7 9,1 13,5 16,2 17,7 15 8 32 17 N 1032,4 20 0 0,0
22.10.2018 22:00:00 13,9 9,3 13,4 16,3 17,8 16 9 29 16 NNE 1031,9 20 0 0,0
22.10.2018 21:00:00 13,9 9,7 13,4 16,4 17,8 17 9 35 19 NNE 1031,4 20 0 0,0
22.10.2018 20:00:00 14,8 10,4 14,6 16,4 17,8 19 10 35 19 NNE 1031,0 20 0 0,0
22.10.2018 19:00:00 15,0 10,0 14,8 16,4 17,8 17 9 39 21 NNE 1030,0 20 14 0,0
22.10.2018 18:00:00 16,3 10,2 17,6 16,2 17,8 21 11 43 23 N 1029,1 19 60 0,0
22.10.2018 17:00:00 18,6 8,5 21,2 15,8 17,8 19 10 40 22 NNE 1028,3 20 60 0,0
22.10.2018 16:00:00 18,5 7,6 20,0 15,4 17,8 18 10 33 18 NNE 1028,1 20 12 0,0
22.10.2018 15:00:00 19,0 8,0 22,3 14,8 17,8 24 13 41 22 NE 1028,1 20 60 0,0
22.10.2018 14:00:00 18,6 7,7 21,6 14,3 17,8 21 11 39 21 NNE 1028,3 20 60 0,0
22.10.2018 13:00:00 17,6 5,5 19,8 13,9 17,8 17 9 35 19 NNE 1028,7 20 60 0,0
22.10.2018 12:00:00 15,7 5,0 18,5 13,7 17,8 18 10 36 19 NNE 1028,8 20 60 0,0
22.10.2018 11:00:00 12,7 5,8 13,4 13,7 17,9 12 6 19 10 N 1028,6 20 60 0,0
22.10.2018 10:00:00 8,3 5,6 9,5 13,8 17,8 7 4 14 8 NW 1028,6 14 60 0,0
22.10.2018 09:00:00 7,1 4,9 2,2 14,1 17,9 5 3 9 5 NW 1027,9 19 18 0,0
22.10.2018 08:00:00 5,4 3,6 2,0 14,3 17,9 0 0 11 6 N 1027,1 18 0 0,0
22.10.2018 07:00:00 6,1 3,8 2,5 14,6 17,9 3 2 9 5 NE 1026,5 20 0 0,0
22.10.2018 06:00:00 5,7 3,7 2,8 14,8 17,9 4 2 8 4 NNW 1026,0 20 0 0,0
22.10.2018 05:00:00 6,7 4,2 4,7 15,1 17,9 5 3 12 7 N 1025,8 20 0 0,0
22.10.2018 04:00:00 7,0 4,5 4,9 15,3 17,9 9 5 14 8 N 1025,8 20 0 0,0
22.10.2018 03:00:00 7,1 3,9 5,2 15,6 17,9 10 5 14 8 WNW 1025,9 20 0 0,0
22.10.2018 02:00:00 8,5 4,7 3,2 16,0 17,9 6 3 10 5 WNW 1025,5 20 0 0,0
22.10.2018 01:00:00 9,7 4,9 6,7 16,3 17,9 6 3 10 5 N 1025,1 20 0 0,0
22.10.2018 00:00:00 9,9 4,7 6,2 16,6 17,9 7 4 10 5 NNW 1025,1 20 0 0,0
21.10.2018 23:00:00 11,2 4,6 7,1 16,9 17,9 8 4 10 5 NNW 1024,9 20 0 0,0
21.10.2018 22:00:00 12,6 4,3 10,6 17,2 17,9 7 4 14 7 NNE 1024,4 20 0 0,0
21.10.2018 21:00:00 13,6 3,9 11,4 17,4 18,0 8 4 14 8 N 1024,5 20 0 0,0
21.10.2018 20:00:00 15,3 3,4 12,0 17,5 18,0 6 4 16 9 N 1024,0 20 0 0,0
21.10.2018 19:00:00 17,7 3,9 16,0 17,5 18,0 10 5 18 10 NNE 1023,6 20 29 0,0
21.10.2018 18:00:00 20,4 4,4 22,8 17,2 18,0 11 6 21 11 NNE 1023,2 20 60 0,0
21.10.2018 17:00:00 21,2 5,9 24,2 16,8 18,0 11 6 25 14 NE 1023,5 20 60 0,0
21.10.2018 16:00:00 21,2 7,8 24,2 16,2 18,0 14 8 27 15 E 1023,8 19 60 0,0
21.10.2018 15:00:00 20,1 9,0 23,3 15,7 18,0 10 6 25 13 ENE 1024,4 16 60 0,0
21.10.2018 14:00:00 19,1 9,8 22,4 15,2 18,0 10 5 19 11 NE 1025,1 13 60 0,0
21.10.2018 13:00:00 16,9 10,0 19,0 14,8 18,0 10 5 16 9 ENE 1025,8 12 60 0,0
21.10.2018 12:00:00 14,3 9,3 16,4 14,6 18,0 9 5 18 10 NE 1026,4 11 60 0,0
21.10.2018 11:00:00 12,3 8,9 12,0 14,6 18,0 12 6 19 10 ENE 1027,1 9 60 0,0
21.10.2018 10:00:00 8,0 7,6 5,7 14,8 18,0 0 0 4 2 N 1027,6 3,0 60 0,0
21.10.2018 09:00:00 5,6 5,2 1,3 15,1 18,0 2 1 6 3 W 1027,5 2,8 20 0,0
21.10.2018 08:00:00 5,5 5,1 1,4 15,4 18,0 0 0 6 3 N 1026,9 3,9 0 0,0
21.10.2018 07:00:00 6,2 5,6 2,8 15,6 18,1 4 2 5 3 ESE 1027,0 2,1 0 0,0
21.10.2018 06:00:00 6,7 5,8 3,5 15,9 18,1 4 2 6 3 E 1027,3 4,8 0 0,0
21.10.2018 05:00:00 7,1 5,9 4,4 16,2 18,1 3 1 6 4 WNW 1027,4 3,8 0 0,0
21.10.2018 04:00:00 8,5 6,6 4,9 16,5 18,1 4 2 8 4 N 1027,8 8 0 0,0
21.10.2018 03:00:00 10,6 7,3 9,1 16,7 18,1 5 3 14 8 NE 1027,6 11 0 0,0
21.10.2018 02:00:00 11,2 7,9 8,2 17,0 18,1 10 5 15 8 E 1028,1 9 0 0,0
21.10.2018 01:00:00 11,8 8,3 11,1 17,2 18,1 8 5 21 11 E 1028,2 8 0 0,0
21.10.2018 00:00:00 13,1 9,2 10,3 17,5 18,1 11 6 25 14 ENE 1028,4 9 0 0,0
20.10.2018 23:00:00 12,2 8,8 10,9 17,8 18,1 5 3 17 9 NNE 1028,6 11 0 0,0
20.10.2018 22:00:00 13,4 9,3 11,6 18,0 18,1 5 3 17 9 NNE 1028,1 13 0 0,0
20.10.2018 21:00:00 15,1 9,7 13,7 18,2 18,1 9 5 17 9 NE 1027,7 16 0 0,0
20.10.2018 20:00:00 15,9 9,8 14,8 18,3 18,1 9 5 16 9 NNE 1027,8 18 0 0,0
20.10.2018 19:00:00 17,7 10,1 16,6 18,3 18,1 9 5 20 11 NNE 1027,0 20 20 0,0
20.10.2018 18:00:00 19,9 10,3 21,3 18,1 18,1 13 7 29 16 NNE 1026,6 20 60 0,0
20.10.2018 17:00:00 21,0 10,2 24,1 17,7 18,2 14 7 25 14 NE 1026,6 20 60 0,0
20.10.2018 16:00:00 21,4 9,9 24,9 17,2 18,1 14 8 26 14 NE 1026,5 20 60 0,0
20.10.2018 15:00:00 21,2 10,4 23,9 16,6 18,1 11 6 26 14 ENE 1027,0 17 60 0,0
20.10.2018 14:00:00 20,5 10,9 22,6 16,2 18,1 14 7 28 15 ENE 1027,6 12 60 0,0
20.10.2018 13:00:00 18,4 11,0 21,3 15,9 18,1 13 7 29 15 NE 1028,4 10 60 0,0
20.10.2018 12:00:00 16,6 11,1 17,8 15,6 18,1 12 7 20 11 NE 1028,6 9 60 0,0
20.10.2018 11:00:00 14,1 10,5 17,0 15,6 18,1 7 4 18 10 NE 1028,4 7 60 0,0
20.10.2018 10:00:00 11,6 10,0 9,5 15,8 18,1 0 0 5 3 N 1027,9 3,7 60 0,0
20.10.2018 09:00:00 9,4 8,8 6,6 16,0 18,2 5 3 8 4 NNE 1027,7 2,4 21 0,0
20.10.2018 08:00:00 9,3 8,5 6,1 16,2 18,2 6 3 11 6 N 1027,2 2,4 0 0,2
20.10.2018 07:00:00 10,4 9,0 8,8 16,4 18,2 4 2 20 11 N 1026,3 3,8 0 0,0
20.10.2018 06:00:00 11,1 9,7 9,6 16,6 18,2 8 4 17 9 NE 1025,6 4,8 0 0,0
20.10.2018 05:00:00 10,8 9,6 9,6 16,9 18,2 10 5 16 9 NNE 1025,5 4,8 0 0,0
20.10.2018 04:00:00 11,1 9,7 9,2 17,1 18,2 6 3 14 8 NNE 1025,1 6 0 0,0
20.10.2018 03:00:00 12,1 9,7 8,4 17,4 18,2 4 2 13 7 NNE 1024,8 8 0 0,0
20.10.2018 02:00:00 11,2 9,3 7,8 17,6 18,2 5 3 8 5 NE 1024,9 8 0 0,0
20.10.2018 01:00:00 13,1 10,5 11,9 17,8 18,2 7 4 17 9 NNE 1024,8 10 0 0,0
20.10.2018 00:00:00 14,2 10,8 13,0 18,1 18,2 11 6 20 11 NNE 1024,5 14 0 0,0
19.10.2018 23:00:00 15,0 10,4 13,7 18,3 18,2 12 7 18 10 NE 1023,8 17 0 0,0
19.10.2018 22:00:00 15,4 10,4 14,3 18,6 18,2 9 5 16 9 NNE 1023,6 19 0 0,0
19.10.2018 21:00:00 16,0 10,5 14,5 18,8 18,2 8 4 17 9 NNE 1023,0 18 0 0,0
19.10.2018 20:00:00 16,3 10,6 14,8 18,9 18,2 9 5 15 8 N 1022,5 18 0 0,0
19.10.2018 19:00:00 17,9 10,8 16,9 18,9 18,2 8 4 18 10 N 1021,2 15 32 0,0
19.10.2018 18:00:00 19,9 10,9 21,6 18,7 18,2 13 7 29 16 NNE 1020,5 19 60 0,0
19.10.2018 17:00:00 21,3 10,1 24,7 18,3 18,2 12 7 24 13 NE 1020,2 20 60 0,0
19.10.2018 16:00:00 21,6 10,7 25,1 17,7 18,2 16 8 27 14 ENE 1020,2 18 60 0,0
19.10.2018 15:00:00 21,1 12,0 26,0 17,2 18,2 7 4 15 8 N 1020,2 16 60 0,0
19.10.2018 14:00:00 19,6 12,4 23,9 16,7 18,2 4 2 13 7 N 1020,8 12 60 0,0
19.10.2018 13:00:00 18,2 11,5 21,3 16,3 18,2 7 4 12 6 N 1021,3 10 60 0,0
19.10.2018 12:00:00 16,2 11,6 19,9 16,1 18,3 4 2 9 5 N 1021,6 7 58 0,0
19.10.2018 11:00:00 14,4 11,7 15,0 16,1 18,2 2 1 5 3 NNE 1021,5 5 60 0,0
19.10.2018 10:00:00 10,5 10,0 9,2 16,3 18,2 3 1 5 3 WNW 1021,6 2,8 60 0,0
19.10.2018 09:00:00 8,7 8,2 6,7 16,5 18,3 0 0 7 4 N 1020,9 1,5 14 0,0
19.10.2018 08:00:00 9,1 8,6 5,4 16,8 18,3 2 1 7 4 NW 1020,6 1,2 0 0,0
19.10.2018 07:00:00 9,5 8,9 6,7 17,0 18,3 3 2 8 4 WNW 1020,2 1,7 0 0,0
19.10.2018 06:00:00 10,2 9,6 7,2 17,3 18,3 4 2 9 5 NW 1020,0 2,0 0 0,0
19.10.2018 05:00:00 10,9 10,0 8,5 17,5 18,3 4 2 9 5 NW 1019,5 3,0 0 0,0
19.10.2018 04:00:00 11,5 10,2 8,7 17,8 18,3 6 3 9 5 N 1019,4 4,2 0 0,0
19.10.2018 03:00:00 12,4 10,5 9,3 18,0 18,3 5 3 12 7 N 1019,4 6 0 0,0
19.10.2018 02:00:00 14,8 11,4 12,0 18,2 18,3 10 5 19 10 NE 1019,4 8 0 0,0
19.10.2018 01:00:00 15,6 11,6 14,4 18,4 18,3 9 5 20 11 NE 1019,4 9 0 0,0
19.10.2018 00:00:00 16,0 11,8 15,0 18,6 18,3 9 5 24 13 NE 1019,4 13 0 0,0
18.10.2018 23:00:00 17,1 11,8 16,3 18,8 18,3 15 8 31 17 NE 1019,3 13 0 0,0
18.10.2018 22:00:00 17,9 12,1 17,0 19,0 18,3 14 8 29 15 NE 1018,8 11 0 0,0
18.10.2018 21:00:00 18,4 11,7 17,0 19,1 18,3 14 8 24 13 NE 1018,4 19 0 0,0
18.10.2018 20:00:00 19,2 10,7 17,9 19,2 18,3 10 6 20 11 NNE 1017,8 20 0 0,0
18.10.2018 19:00:00 20,9 10,1 19,8 19,2 18,3 11 6 29 16 NNE 1017,2 20 6 0,0
18.10.2018 18:00:00 23,2 8,5 23,9 18,9 18,3 15 8 32 17 NE 1016,5 20 58 0,0
18.10.2018 17:00:00 23,8 8,2 26,5 18,6 18,3 19 10 32 17 NE 1016,4 20 60 0,0
18.10.2018 16:00:00 23,6 8,8 26,9 18,1 18,3 18 10 31 17 NE 1016,8 20 60 0,0
18.10.2018 15:00:00 22,9 9,3 25,6 17,6 18,3 19 10 34 18 NE 1017,2 20 60 0,0
18.10.2018 14:00:00 21,7 9,9 24,9 17,1 18,3 18 10 32 17 NE 1018,0 20 60 0,0
18.10.2018 13:00:00 20,4 11,1 23,5 16,8 18,3 10 5 21 11 NE 1018,6 20 60 0,0
18.10.2018 12:00:00 18,6 10,9 21,0 16,6 18,3 8 5 21 11 NNE 1019,0 18 60 0,0
18.10.2018 11:00:00 15,7 11,3 18,2 16,6 18,3 12 6 18 10 NE 1019,1 11 60 0,0
18.10.2018 10:00:00 12,6 10,5 11,6 16,8 18,3 6 3 12 7 N 1019,3 10 60 0,0
18.10.2018 09:00:00 10,5 9,6 6,8 17,0 18,3 4 2 5 3 WNW 1019,0 10 24 0,0
18.10.2018 08:00:00 9,6 8,4 7,1 17,2 18,3 5 3 6 4 WSW 1018,6 14 0 0,0
18.10.2018 07:00:00 9,7 8,0 6,8 17,5 18,3 5 3 6 3 WSW 1018,3 16 0 0,0
18.10.2018 06:00:00 11,7 9,6 7,0 17,7 18,3 2 1 7 4 NE 1017,7 18 0 0,0
18.10.2018 05:00:00 13,4 10,2 11,6 18,0 18,3 5 3 11 6 NE 1017,5 20 0 0,0
18.10.2018 04:00:00 13,5 9,9 10,8 18,2 18,3 6 3 10 6 NNE 1017,6 20 0 0,0
18.10.2018 03:00:00 13,4 9,6 9,8 18,4 18,3 4 2 9 5 N 1017,9 20 0 0,0
18.10.2018 02:00:00 14,7 9,7 13,3 18,7 18,3 7 4 20 11 NE 1018,0 20 0 0,0
18.10.2018 01:00:00 16,1 10,0 14,9 18,9 18,3 13 7 23 12 NE 1017,7 20 0 0,0
18.10.2018 00:00:00 16,4 9,8 15,3 19,2 18,3 11 6 16 9 NE 1017,8 20 0 0,0

tt = Température de l'air
td = dewpoint
tt 5cm = Température de l'air 5cm
tt -20cm = Température de l'air -20cm
tt -100cm = Température de l'air -100cm
ff = Vitesse du vent
fx = gusts
dd = Direction du vent
ppp = reduced air pressure
vv = visibility
sd = Ensoleillement
rr = Quantités de précipitations

stations d'obs. à proximité